Regional Weather Roundup
Issued by NWS Boston, MA

Current Version | Previous Version | Text Only | Print | Product List | Glossary Off
Versions: 1 2 3 4 5 6 7 8 9 10 11 12 13 14 15 16 17 18 19 20 21 22 23 24 25 26 27
000 ASUS41 KBOX 171810 RWRBOX REGIONAL WEATHER ROUNDUP NATIONAL WEATHER SERVICE BOSTON/NORTON MA 200 PM EDT SUN JUN 17 2018 NOTE: "FAIR" INDICATES FEW OR NO CLOUDS BELOW 12,000 FEET WITH NO SIGNIFICANT WEATHER AND/OR OBSTRUCTIONS TO VISIBILITY. MAZALL-171900- EASTERN MASSACHUSETTS CITY SKY/WX TMP DP RH WIND PRES REMARKS BOSTON NOT AVBL BEVERLY FAIR 79 51 37 SE9 30.06S LAWRENCE FAIR 88 51 28 E9 30.07S BEDFORD FAIR 87 49 26 CALM 30.03F BLUE HILL N/A 84 53 34 NE6 30.06F NORWOOD FAIR 89 53 29 W7 30.04F MARSHFIELD FAIR 73 52 46 E7 30.07S PLYMOUTH FAIR 85 55 35 E8 30.06F TAUNTON FAIR 88 53 30 VRB5 30.03F NEW BEDFORD FAIR 86 60 41 S10 30.05S $$ MAZALL-171900- CAPE COD AND THE ISLANDS CITY SKY/WX TMP DP RH WIND PRES REMARKS FALMOUTH FAIR 81 57 44 SE14G20 30.08R HYANNIS FAIR 78 56 46 SE7 30.06F CHATHAM FAIR 77 54 44 VRB5 30.08F PROVINCETOWN FAIR 76 56 49 NE7 30.08F NANTUCKET FAIR 72 58 61 S7 30.08F MARTHAS VNYRD FAIR 80 61 52 S10 30.07S $$ MAZALL-171900- CENTRAL AND WESTERN MASSACHUSETTS CITY SKY/WX TMP DP RH WIND PRES REMARKS WORCESTER FAIR 81 53 37 VRB6 30.08F 6HR MIN TEMP: 72; 6HR MAX TEMP: 83; FITCHBURG FAIR 88 54 31 VRB3 30.05F ORANGE FAIR 85 52 32 S6 30.06F SPRINGFIELD PTSUNNY 87 42 20 CALM 30.04F WESTFIELD FAIR 87 51 28 VRB5 30.04F NORTH ADAMS FAIR 85 52 32 MISG 30.06F PITTSFIELD FAIR 84 44 24 W6 30.08F $$ RIZALL-171900- RHODE ISLAND CITY SKY/WX TMP DP RH WIND PRES REMARKS PROVIDENCE FAIR 84 57 39 S15 30.06S 6HR MIN TEMP: 71; 6HR MAX TEMP: 87; NEWPORT FAIR 80 59 48 S8 30.06S BLOCK ISLAND FAIR 75 62 64 S10 30.08F SMITHFIELD FAIR 85 55 35 W7 30.06F WESTERLY FAIR 79 59 50 S9 30.07S $$ CTZALL-171900- CONNECTICUT CITY SKY/WX TMP DP RH WIND PRES REMARKS BRADLEY INTL PTSUNNY 88 51 28 VRB3 30.05F 6HR MIN TEMP: 66; 6HR MAX TEMP: 89; HARTFORD FAIR 86 53 32 E3 30.04F BRIDGEPORT FAIR 82 52 35 S8 30.06F DANBURY SUNNY 84 54 34 CALM 30.07F GROTON FAIR 72 61 68 S7 30.06S NEW HAVEN FAIR 80 57 45 S8 30.07F CHESTER FAIR 86 54 32 SW9 30.07F MERIDEN FAIR 87 52 29 VRB6 30.04F WILLIMANTIC FAIR 87 51 28 W6 30.05F OXFORD FAIR 83 54 36 CALM 30.09F $$ MEZ002-015-021-024-NHZ003-005-008-011-012-014-VTZ005-008-171900- NORTHERN NEW ENGLAND CITY SKY/WX TMP DP RH WIND PRES REMARKS PORTLAND ME FAIR 65 53 65 E12 30.11R 6HR MIN TEMP: 63; 6HR MAX TEMP: 69; BANGOR ME PTSUNNY 76 56 49 SE10 30.08F CONCORD NH FAIR 87 47 24 W8 30.05S MANCHESTER NH FAIR 82 44 26 SW5 30.03F NASHUA NH FAIR 86 45 23 VRB7 30.05F PORTSMOUTH NH PTSUNNY 72 52 49 E9 30.07 JAFFREY NH FAIR 85 47 26 W6 30.08F KEENE NH FAIR 89 51 27 W8 30.06F BURLINGTON VT PTSUNNY 85 51 31 S9 30.03F MT. WASHINGTON PTSUNNY 61 46 59 W5 N/A $$ NYZ052-076-171900- EASTERN NEW YORK CITY SKY/WX TMP DP RH WIND PRES REMARKS ALBANY PTSUNNY 87 51 28 NW9 30.06S 6HR MIN TEMP: 66; 6HR MAX TEMP: 87; NEW YORK CITY PTSUNNY 89 46 22 SW3 30.04F 6HR MIN TEMP: 73; 6HR MAX TEMP: 90; $$ ANZALL-171900- MARINE OBSERVATIONS STATION/POSITION TIME TEMP WIND PRES VSBY WAVE AIR SEA DIR/SP/G HT/PER (UTC) (F) (DEG/KT/KT) (MB) (MI) (FT/S) BOSTON BUOY 1750 64 63 80/ 8/ 10 1017.8F 1 BUZZARDS BAY 1700 68 190/ 10/ 11 1019.1F NANTUCKET SOUND 1750 65 64 160/ 4/ 6 1018.3F 1 MASS BAY-STELLWA 1704 61 61 1016.7F 1/ 8 ISLE OF SHOALS 1800 58 50/ 8/ 9 1018.5R S OF BLOCK IS 1743 62 N/A 1/ 8 $$ ......................KEY......................... SKY/WX - SKY CONDITION/PRESENT WEATHER TMP - TEMPERATURE IN FAHRENHEIT DWPT - DEWPOINT IN FAHRENHEIT RH - RELATIVE HUMIDITY IN PERCENT WIND - DIRECTION AND SPEED IN MPH PRES - MEAN SEA LEVEL PRESSURE IN INCHES OF HG WCI - WIND CHILL INDEX VSB - VISIBILITY IN MILES HX - HEAT INDEX TC - TEMPERATURE IN CELSIUS VRB - VARIABLE WIND DIRECTION N/A - NOT AVAILABLE

USA.gov is the U.S. government's official web portal to all federal, state and local government web resources and services.